Time,TemperatureF,DewpointF,PressureIn,WindDirection,WindDirectionDegrees,WindSpeedMPH,WindSpeedGustMPH,Humidity,HourlyPrecipIn,Conditions,Clouds,dailyrainin,SoftwareType,DateUTC
2013-03-02 00:00:00,55.9,15.5,30.26,WNW,298,6.7,8.7,20,0.00,,CLR,0.00,VWS V14.01,2013-03-02 08:00:00,
2013-03-02 00:05:00,56.1,15.6,30.26,WNW,301,6.3,7.6,20,0.00,,CLR,0.00,VWS V14.01,2013-03-02 08:05:00,
2013-03-02 00:10:00,56.1,15.6,30.26,WNW,299,6.3,8.1,20,0.00,,CLR,0.00,VWS V14.01,2013-03-02 08:10:00,
2013-03-02 00:15:00,55.9,15.5,30.26,NW,315,5.4,5.8,20,0.00,,CLR,0.00,VWS V14.01,2013-03-02 08:15:00,
2013-03-02 00:20:00,55.6,15.2,30.26,NW,310,6.3,6.3,20,0.00,,CLR,0.00,VWS V14.01,2013-03-02 08:20:00,
2013-03-02 00:25:00,55.2,14.9,30.26,NW,314,6.3,6.3,20,0.00,,CLR,0.00,VWS V14.01,2013-03-02 08:25:00,
2013-03-02 00:30:00,54.7,14.4,30.26,NW,320,0.0,3.1,20,0.00,,CLR,0.00,VWS V14.01,2013-03-02 08:30:00,
2013-03-02 00:35:00,54.1,14.0,30.26,NNW,343,0.0,0.0,20,0.00,,CLR,0.00,VWS V14.01,2013-03-02 08:35:00,
2013-03-02 00:40:00,53.2,14.3,30.26,NNW,343,3.6,3.6,21,0.00,,CLR,0.00,VWS V14.01,2013-03-02 08:40:00,
2013-03-02 00:45:00,52.7,13.9,30.26,North,353,4.0,4.9,21,0.00,,CLR,0.00,VWS V14.01,2013-03-02 08:45:00,
2013-03-02 00:50:00,52.5,13.7,30.26,NNW,341,5.8,5.8,21,0.00,,CLR,0.00,VWS V14.01,2013-03-02 08:50:00,
2013-03-02 00:55:00,52.3,13.6,30.26,NW,325,3.6,6.3,21,0.00,,CLR,0.00,VWS V14.01,2013-03-02 08:55:00,
2013-03-02 01:00:00,52.2,13.4,30.26,WNW,300,6.3,6.3,21,0.00,,CLR,0.00,VWS V14.01,2013-03-02 09:00:00,
2013-03-02 01:05:00,52.2,13.4,30.26,NW,317,4.0,6.3,21,0.00,,CLR,0.00,VWS V14.01,2013-03-02 09:05:00,
2013-03-02 01:10:00,52.2,13.4,30.26,NNW,328,3.6,5.8,21,0.00,,CLR,0.00,VWS V14.01,2013-03-02 09:10:00,
2013-03-02 01:15:00,52.3,13.6,30.26,NW,316,4.0,6.3,21,0.00,,CLR,0.00,VWS V14.01,2013-03-02 09:15:00,
2013-03-02 01:20:00,52.5,13.7,30.26,NW,318,4.0,4.9,21,0.00,,CLR,0.00,VWS V14.01,2013-03-02 09:20:00,
2013-03-02 01:25:00,52.3,13.6,30.29,NW,321,0.0,0.0,21,0.00,,CLR,0.00,VWS V14.01,2013-03-02 09:25:00,
2013-03-02 01:30:00,52.2,13.4,30.29,NW,320,0.0,0.0,21,0.00,,CLR,0.00,VWS V14.01,2013-03-02 09:30:00,
2013-03-02 01:35:00,52.0,13.3,30.29,NW,321,0.0,0.0,21,0.00,,CLR,0.00,VWS V14.01,2013-03-02 09:35:00,
2013-03-02 01:40:00,52.0,13.3,30.29,NW,321,0.0,0.0,21,0.00,,CLR,0.00,VWS V14.01,2013-03-02 09:40:00,
2013-03-02 01:45:00,52.3,13.6,30.29,NW,321,0.0,0.0,21,0.00,,CLR,0.00,VWS V14.01,2013-03-02 09:45:00,
2013-03-02 01:50:00,52.7,13.9,30.29,NW,321,0.0,0.0,21,0.00,,CLR,0.00,VWS V14.01,2013-03-02 09:50:00,
2013-03-02 01:55:00,52.5,13.7,30.29,NW,321,0.0,0.0,21,0.00,,CLR,0.00,VWS V14.01,2013-03-02 09:55:00,
2013-03-02 02:00:00,52.5,13.7,30.29,WNW,291,4.0,4.9,21,0.00,,CLR,0.00,VWS V14.01,2013-03-02 10:00:00,
2013-03-02 02:05:00,52.9,14.0,30.29,WNW,288,4.9,6.3,21,0.00,,CLR,0.00,VWS V14.01,2013-03-02 10:05:00,
2013-03-02 02:10:00,53.6,13.5,30.29,West,276,8.7,9.6,20,0.00,,CLR,0.00,VWS V14.01,2013-03-02 10:10:00,
2013-03-02 02:15:00,54.5,14.3,30.29,NW,307,8.7,8.7,20,0.00,,CLR,0.00,VWS V14.01,2013-03-02 10:15:00,
2013-03-02 02:20:00,54.3,14.1,30.29,WNW,284,5.4,8.7,20,0.00,,CLR,0.00,VWS V14.01,2013-03-02 10:20:00,
2013-03-02 02:25:00,54.0,13.8,30.29,WNW,292,5.4,8.3,20,0.00,,CLR,0.00,VWS V14.01,2013-03-02 10:25:00,
2013-03-02 02:30:00,53.8,13.7,30.29,WNW,288,4.0,7.6,20,0.00,,CLR,0.00,VWS V14.01,2013-03-02 10:30:00,
2013-03-02 02:35:00,53.8,13.7,30.29,NW,318,3.6,4.0,20,0.00,,CLR,0.00,VWS V14.01,2013-03-02 10:35:00,
2013-03-02 02:40:00,53.1,14.2,30.26,WNW,299,0.0,0.0,21,0.00,,CLR,0.00,VWS V14.01,2013-03-02 10:40:00,
2013-03-02 02:45:00,52.3,13.6,30.26,West,265,0.0,0.0,21,0.00,,CLR,0.00,VWS V14.01,2013-03-02 10:45:00,
2013-03-02 02:50:00,51.8,13.1,30.26,West,266,0.0,0.0,21,0.00,,CLR,0.00,VWS V14.01,2013-03-02 10:50:00,
2013-03-02 02:55:00,51.1,12.5,30.26,West,266,0.0,0.0,21,0.00,,CLR,0.00,VWS V14.01,2013-03-02 10:55:00,
2013-03-02 03:00:00,50.4,11.9,30.26,NNW,344,0.0,0.0,21,0.00,,CLR,0.00,VWS V14.01,2013-03-02 11:00:00,
2013-03-02 03:05:00,49.8,11.5,30.26,NNW,341,4.9,4.9,21,0.00,,CLR,0.00,VWS V14.01,2013-03-02 11:05:00,
2013-03-02 03:10:00,49.6,11.3,30.26,NNW,341,0.0,0.0,21,0.00,,CLR,0.00,VWS V14.01,2013-03-02 11:10:00,
2013-03-02 03:15:00,49.5,11.2,30.26,NNW,341,0.0,0.0,21,0.00,,CLR,0.00,VWS V14.01,2013-03-02 11:15:00,
2013-03-02 03:20:00,49.3,11.0,30.26,NNW,327,3.6,3.6,21,0.00,,CLR,0.00,VWS V14.01,2013-03-02 11:20:00,
2013-03-02 03:25:00,49.3,11.0,30.26,NW,313,5.4,7.6,21,0.00,,CLR,0.00,VWS V14.01,2013-03-02 11:25:00,
2013-03-02 03:30:00,49.5,11.2,30.26,NW,316,5.8,8.1,21,0.00,,CLR,0.00,VWS V14.01,2013-03-02 11:30:00,
2013-03-02 03:35:00,49.5,11.2,30.26,NW,320,0.0,0.0,21,0.00,,CLR,0.00,VWS V14.01,2013-03-02 11:35:00,
2013-03-02 03:40:00,49.5,11.2,30.26,NW,304,0.0,0.0,21,0.00,,CLR,0.00,VWS V14.01,2013-03-02 11:40:00,
2013-03-02 03:45:00,49.1,10.9,30.26,WNW,303,0.0,0.0,21,0.00,,CLR,0.00,VWS V14.01,2013-03-02 11:45:00,
2013-03-02 03:50:00,48.7,10.6,30.26,WNW,303,0.0,0.0,21,0.00,,CLR,0.00,VWS V14.01,2013-03-02 11:50:00,
2013-03-02 03:55:00,48.7,10.6,30.26,WNW,303,0.0,0.0,21,0.00,,CLR,0.00,VWS V14.01,2013-03-02 11:55:00,
2013-03-02 04:00:00,48.7,10.6,30.26,WNW,303,4.9,5.8,21,0.00,,CLR,0.00,VWS V14.01,2013-03-02 12:00:00,
2013-03-02 04:05:00,48.7,10.6,30.26,WNW,285,6.3,6.3,21,0.00,,CLR,0.00,VWS V14.01,2013-03-02 12:05:00,
2013-03-02 04:10:00,48.4,10.3,30.26,WNW,298,5.4,6.3,21,0.00,,CLR,0.00,VWS V14.01,2013-03-02 12:10:00,
2013-03-02 04:15:00,48.0,11.0,30.26,West,278,0.0,3.6,22,0.00,,CLR,0.00,VWS V14.01,2013-03-02 12:15:00,
2013-03-02 04:20:00,47.8,10.9,30.26,WNW,288,0.0,0.0,22,0.00,,CLR,0.00,VWS V14.01,2013-03-02 12:20:00,
2013-03-02 04:25:00,47.7,10.7,30.26,WNW,288,0.0,0.0,22,0.00,,CLR,0.00,VWS V14.01,2013-03-02 12:25:00,
2013-03-02 04:30:00,47.7,10.7,30.26,WNW,288,0.0,0.0,22,0.00,,CLR,0.00,VWS V14.01,2013-03-02 12:30:00,
2013-03-02 04:35:00,47.8,10.9,30.26,WNW,288,0.0,0.0,22,0.00,,CLR,0.00,VWS V14.01,2013-03-02 12:35:00,
2013-03-02 04:40:00,48.0,11.0,30.26,West,266,3.6,4.9,22,0.00,,CLR,0.00,VWS V14.01,2013-03-02 12:40:00,
2013-03-02 04:45:00,48.2,10.1,30.26,West,267,4.0,5.4,21,0.00,,CLR,0.00,VWS V14.01,2013-03-02 12:45:00,
2013-03-02 04:50:00,48.2,10.1,30.26,WNW,294,0.0,3.1,21,0.00,,CLR,0.00,VWS V14.01,2013-03-02 12:50:00,
2013-03-02 04:55:00,47.8,10.9,30.26,WNW,294,2.2,2.2,22,0.00,,CLR,0.00,VWS V14.01,2013-03-02 12:55:00,
2013-03-02 05:00:00,47.3,10.4,30.26,WNW,297,3.6,3.6,22,0.00,,CLR,0.00,VWS V14.01,2013-03-02 13:00:00,
2013-03-02 05:05:00,46.9,10.1,30.26,NW,311,5.4,5.8,22,0.00,,CLR,0.00,VWS V14.01,2013-03-02 13:05:00,
2013-03-02 05:10:00,46.8,9.9,30.26,WNW,301,3.6,7.2,22,0.00,,CLR,0.00,VWS V14.01,2013-03-02 13:10:00,
2013-03-02 05:15:00,46.9,10.1,30.26,NW,306,3.6,4.9,22,0.00,,CLR,0.00,VWS V14.01,2013-03-02 13:15:00,
2013-03-02 05:20:00,47.1,10.2,30.26,WNW,289,2.7,4.9,22,0.00,,CLR,0.00,VWS V14.01,2013-03-02 13:20:00,
2013-03-02 05:25:00,47.3,10.4,30.26,WNW,294,0.0,0.0,22,0.00,,CLR,0.00,VWS V14.01,2013-03-02 13:25:00,
2013-03-02 05:30:00,47.3,10.4,30.26,NW,317,3.1,4.0,22,0.00,,CLR,0.00,VWS V14.01,2013-03-02 13:30:00,
2013-03-02 05:35:00,47.1,10.2,30.26,NW,316,0.0,0.0,22,0.00,,CLR,0.00,VWS V14.01,2013-03-02 13:35:00,
2013-03-02 05:40:00,46.8,9.9,30.26,WNW,287,0.0,0.0,22,0.00,,CLR,0.00,VWS V14.01,2013-03-02 13:40:00,
2013-03-02 05:45:00,46.8,9.9,30.26,WNW,285,0.0,0.0,22,0.00,,CLR,0.00,VWS V14.01,2013-03-02 13:45:00,
2013-03-02 05:50:00,46.8,9.9,30.26,West,280,2.7,3.6,22,0.00,,CLR,0.00,VWS V14.01,2013-03-02 13:50:00,
2013-03-02 05:55:00,46.8,9.9,30.26,West,276,0.0,0.0,22,0.00,,CLR,0.00,VWS V14.01,2013-03-02 13:55:00,
2013-03-02 06:00:00,46.8,9.9,30.26,WNW,300,0.0,0.0,22,0.00,,CLR,0.00,VWS V14.01,2013-03-02 14:00:00,
2013-03-02 06:05:00,46.8,9.9,30.26,WNW,289,0.0,0.0,22,0.00,,CLR,0.00,VWS V14.01,2013-03-02 14:05:00,
2013-03-02 06:10:00,46.6,9.8,30.26,WNW,295,0.0,0.0,22,0.00,,CLR,0.00,VWS V14.01,2013-03-02 14:10:00,
2013-03-02 06:15:00,46.0,9.3,30.26,WNW,295,4.9,4.9,22,0.00,,CLR,0.00,VWS V14.01,2013-03-02 14:15:00,
2013-03-02 06:20:00,45.9,9.2,30.26,WNW,290,0.0,0.0,22,0.00,,CLR,0.00,VWS V14.01,2013-03-02 14:20:00,
2013-03-02 06:25:00,45.7,9.0,30.29,NW,308,2.7,2.7,22,0.00,,CLR,0.00,VWS V14.01,2013-03-02 14:25:00,
2013-03-02 06:30:00,45.9,9.2,30.29,NW,313,3.6,4.5,22,0.00,,CLR,0.00,VWS V14.01,2013-03-02 14:30:00,
2013-03-02 06:35:00,45.9,9.2,30.29,NW,310,2.7,4.9,22,0.00,,CLR,0.00,VWS V14.01,2013-03-02 14:35:00,
2013-03-02 06:40:00,46.0,9.3,30.29,NW,304,5.8,5.8,22,0.00,,CLR,0.00,VWS V14.01,2013-03-02 14:40:00,
2013-03-02 06:45:00,46.4,9.6,30.29,WNW,302,0.0,0.0,22,0.00,,CLR,0.00,VWS V14.01,2013-03-02 14:45:00,
2013-03-02 06:50:00,46.4,9.6,30.29,WNW,295,5.8,5.8,22,0.00,,CLR,0.00,VWS V14.01,2013-03-02 14:50:00,
2013-03-02 06:55:00,47.1,10.2,30.29,WNW,294,3.1,3.6,22,0.00,,CLR,0.00,VWS V14.01,2013-03-02 14:55:00,
2013-03-02 07:00:00,47.7,10.7,30.29,WNW,295,0.0,0.0,22,0.00,,CLR,0.00,VWS V14.01,2013-03-02 15:00:00,
2013-03-02 07:05:00,47.8,10.9,30.29,WNW,294,0.0,0.0,22,0.00,,CLR,0.00,VWS V14.01,2013-03-02 15:05:00,
2013-03-02 07:09:00,48.6,10.4,30.29,NW,305,5.8,5.8,21,0.00,,CLR,0.00,VWS V14.01,2013-03-02 15:09:00,
2013-03-02 07:14:00,49.1,10.9,30.29,NW,309,7.6,7.6,21,0.00,,CLR,0.00,VWS V14.01,2013-03-02 15:14:00,
2013-03-02 07:19:00,49.6,11.3,30.29,WNW,294,7.6,7.6,21,0.00,,CLR,0.00,VWS V14.01,2013-03-02 15:19:00,
2013-03-02 07:24:00,50.5,12.1,30.29,WNW,293,6.3,6.3,21,0.00,,CLR,0.00,VWS V14.01,2013-03-02 15:24:00,
2013-03-02 07:29:00,51.3,12.7,30.29,WNW,295,3.1,3.6,21,0.00,,CLR,0.00,VWS V14.01,2013-03-02 15:29:00,
2013-03-02 07:34:00,52.2,13.4,30.29,NW,311,6.3,6.3,21,0.00,,CLR,0.00,VWS V14.01,2013-03-02 15:34:00,
2013-03-02 07:39:00,53.1,14.2,30.29,NW,305,5.8,5.8,21,0.00,,CLR,0.00,VWS V14.01,2013-03-02 15:39:00,
2013-03-02 07:44:00,54.0,13.8,30.29,WNW,303,4.9,4.9,20,0.00,,CLR,0.00,VWS V14.01,2013-03-02 15:44:00,
2013-03-02 07:49:00,54.9,14.6,30.29,NW,308,3.6,3.6,20,0.00,,CLR,0.00,VWS V14.01,2013-03-02 15:49:00,
2013-03-02 07:54:00,55.8,15.3,30.29,WNW,289,5.4,5.4,20,0.00,,CLR,0.00,VWS V14.01,2013-03-02 15:54:00,
2013-03-02 07:59:00,56.3,15.8,30.29,NW,305,4.0,4.0,20,0.00,,CLR,0.00,VWS V14.01,2013-03-02 15:59:00,
2013-03-02 08:04:00,56.8,16.2,30.29,NW,315,5.8,6.3,20,0.00,,FEW250,0.00,VWS V14.01,2013-03-02 16:04:00,
2013-03-02 08:09:00,57.9,15.9,30.29,NW,314,0.0,0.0,19,0.00,,FEW250,0.00,VWS V14.01,2013-03-02 16:09:00,
2013-03-02 08:14:00,58.8,16.7,30.29,NW,311,3.6,3.6,19,0.00,,FEW250,0.00,VWS V14.01,2013-03-02 16:14:00,
2013-03-02 08:19:00,59.7,17.4,30.29,NW,312,0.0,0.0,19,0.00,,FEW250,0.00,VWS V14.01,2013-03-02 16:19:00,
2013-03-02 08:24:00,60.6,18.2,30.29,NW,312,0.0,0.0,19,0.00,,FEW250,0.00,VWS V14.01,2013-03-02 16:24:00,
2013-03-02 08:29:00,61.7,21.4,30.29,NW,311,0.0,0.0,21,0.00,,FEW250,0.00,VWS V14.01,2013-03-02 16:29:00,
2013-03-02 08:34:00,62.6,22.1,30.29,NW,311,0.0,0.0,21,0.00,,FEW250,0.00,VWS V14.01,2013-03-02 16:34:00,
2013-03-02 08:39:00,63.9,23.2,30.29,NW,311,0.0,0.0,21,0.00,,FEW250,0.00,VWS V14.01,2013-03-02 16:39:00,
2013-03-02 08:44:00,64.4,22.5,30.29,NW,311,0.0,0.0,20,0.00,,FEW250,0.00,VWS V14.01,2013-03-02 16:44:00,
2013-03-02 08:49:00,64.9,22.9,30.29,NW,311,0.0,0.0,20,0.00,,FEW250,0.00,VWS V14.01,2013-03-02 16:49:00,
2013-03-02 08:54:00,66.0,23.8,30.26,NW,312,0.0,0.0,20,0.00,,FEW250,0.00,VWS V14.01,2013-03-02 16:54:00,
2013-03-02 08:59:00,66.6,24.3,30.26,NW,311,0.0,0.0,20,0.00,,FEW250,0.00,VWS V14.01,2013-03-02 16:59:00,
2013-03-02 09:04:00,66.7,24.4,30.26,NW,311,0.0,0.0,20,0.00,,FEW250,0.00,VWS V14.01,2013-03-02 17:04:00,
2013-03-02 09:09:00,66.9,24.6,30.26,NW,311,0.0,0.0,20,0.00,,FEW250,0.00,VWS V14.01,2013-03-02 17:09:00,
2013-03-02 09:14:00,65.8,23.7,30.26,NW,310,0.0,0.0,20,0.00,,FEW250,0.00,VWS V14.01,2013-03-02 17:14:00,
2013-03-02 09:19:00,65.3,23.2,30.26,South,184,0.0,0.0,20,0.00,,FEW250,0.00,VWS V14.01,2013-03-02 17:19:00,
2013-03-02 09:24:00,64.8,22.8,30.26,South,185,0.0,0.0,20,0.00,,FEW250,0.00,VWS V14.01,2013-03-02 17:24:00,
2013-03-02 09:29:00,64.8,22.8,30.26,South,169,4.9,6.3,20,0.00,,FEW250,0.00,VWS V14.01,2013-03-02 17:29:00,
2013-03-02 09:34:00,64.2,23.5,30.26,South,175,6.3,6.3,21,0.00,,FEW250,0.00,VWS V14.01,2013-03-02 17:34:00,
2013-03-02 09:39:00,64.0,23.3,30.26,South,184,0.0,0.0,21,0.00,,FEW250,0.00,VWS V14.01,2013-03-02 17:39:00,
2013-03-02 09:44:00,64.4,22.5,30.26,SSE,166,5.4,5.4,20,0.00,,FEW250,0.00,VWS V14.01,2013-03-02 17:44:00,
2013-03-02 09:49:00,63.9,23.2,30.26,SE,126,2.7,3.1,21,0.00,,FEW250,0.00,VWS V14.01,2013-03-02 17:49:00,
2013-03-02 09:54:00,64.4,22.5,30.26,SSE,157,0.0,0.0,20,0.00,,FEW250,0.00,VWS V14.01,2013-03-02 17:54:00,
2013-03-02 09:59:00,64.6,22.6,30.26,SSW,202,0.0,0.0,20,0.00,,FEW250,0.00,VWS V14.01,2013-03-02 17:59:00,
2013-03-02 10:04:00,65.1,23.1,30.26,SSE,150,3.6,3.6,20,0.00,,FEW250,0.00,VWS V14.01,2013-03-02 18:04:00,
2013-03-02 10:09:00,66.2,24.0,30.26,SSE,155,4.9,4.9,20,0.00,,FEW250,0.00,VWS V14.01,2013-03-02 18:09:00,
2013-03-02 10:14:00,66.2,24.0,30.26,South,178,5.8,6.3,20,0.00,,FEW250,0.00,VWS V14.01,2013-03-02 18:14:00,
2013-03-02 10:19:00,65.8,23.7,30.26,South,177,0.0,0.0,20,0.00,,FEW250,0.00,VWS V14.01,2013-03-02 18:19:00,
2013-03-02 10:24:00,66.9,24.6,30.26,East,97,3.1,3.1,20,0.00,,FEW250,0.00,VWS V14.01,2013-03-02 18:24:00,
2013-03-02 10:29:00,67.1,24.7,30.26,ESE,122,0.0,6.3,20,0.00,,FEW250,0.00,VWS V14.01,2013-03-02 18:29:00,
2013-03-02 10:34:00,67.6,25.2,30.26,SE,145,5.8,5.8,20,0.00,,FEW250,0.00,VWS V14.01,2013-03-02 18:34:00,
2013-03-02 10:39:00,67.3,24.9,30.26,ESE,103,3.6,3.6,20,0.00,,FEW250,0.00,VWS V14.01,2013-03-02 18:39:00,
2013-03-02 10:44:00,66.9,24.6,30.26,South,179,5.4,6.3,20,0.00,,FEW250,0.00,VWS V14.01,2013-03-02 18:44:00,
2013-03-02 10:49:00,66.7,24.4,30.26,ESE,118,6.3,6.3,20,0.00,,FEW250,0.00,VWS V14.01,2013-03-02 18:49:00,
2013-03-02 10:54:00,66.6,24.3,30.23,SE,144,6.3,6.3,20,0.00,,FEW250,0.00,VWS V14.01,2013-03-02 18:54:00,
2013-03-02 10:59:00,66.7,24.4,30.23,ESE,122,6.3,6.3,20,0.00,,FEW250,0.00,VWS V14.01,2013-03-02 18:59:00,
2013-03-02 11:04:00,67.3,24.9,30.23,SE,134,7.6,7.6,20,0.00,,FEW250,0.00,VWS V14.01,2013-03-02 19:04:00,
2013-03-02 11:09:00,67.8,25.3,30.23,SSE,157,3.1,3.6,20,0.00,,FEW250,0.00,VWS V14.01,2013-03-02 19:09:00,
2013-03-02 11:14:00,67.6,25.2,30.23,ESE,122,3.1,5.4,20,0.00,,FEW250,0.00,VWS V14.01,2013-03-02 19:14:00,
2013-03-02 11:19:00,67.6,25.2,30.23,SE,134,3.6,3.6,20,0.00,,FEW250,0.00,VWS V14.01,2013-03-02 19:19:00,
2013-03-02 11:24:00,67.5,25.0,30.23,SE,131,5.8,5.8,20,0.00,,FEW250,0.00,VWS V14.01,2013-03-02 19:24:00,
2013-03-02 11:29:00,67.6,25.2,30.23,ESE,113,6.3,7.6,20,0.00,,FEW250,0.00,VWS V14.01,2013-03-02 19:29:00,
2013-03-02 11:34:00,68.0,25.5,30.23,SSE,160,4.0,4.0,20,0.00,,FEW250,0.00,VWS V14.01,2013-03-02 19:34:00,
2013-03-02 11:39:00,68.5,25.9,30.23,ESE,106,3.6,8.1,20,0.00,,FEW250,0.00,VWS V14.01,2013-03-02 19:39:00,
2013-03-02 11:44:00,68.9,26.2,30.23,SE,146,5.4,5.4,20,0.00,,FEW250,0.00,VWS V14.01,2013-03-02 19:44:00,
2013-03-02 11:49:00,69.6,26.8,30.23,SSE,160,6.3,6.3,20,0.00,,FEW250,0.00,VWS V14.01,2013-03-02 19:49:00,
2013-03-02 11:54:00,69.6,26.8,30.20,South,189,4.0,4.0,20,0.00,,FEW250,0.00,VWS V14.01,2013-03-02 19:54:00,
2013-03-02 11:59:00,69.8,25.7,30.20,SSE,153,6.3,6.3,19,0.00,,FEW250,0.00,VWS V14.01,2013-03-02 19:59:00,
2013-03-02 12:04:00,69.8,25.7,30.20,ESE,116,4.0,4.0,19,0.00,,SCT250,0.00,VWS V14.01,2013-03-02 20:04:00,
2013-03-02 12:09:00,70.5,26.3,30.20,SSE,164,5.8,5.8,19,0.00,,SCT250,0.00,VWS V14.01,2013-03-02 20:09:00,
2013-03-02 12:14:00,70.9,26.6,30.20,ESE,111,9.6,9.6,19,0.00,,SCT250,0.00,VWS V14.01,2013-03-02 20:14:00,
2013-03-02 12:19:00,70.5,26.3,30.20,SE,141,6.3,6.3,19,0.00,,SCT250,0.00,VWS V14.01,2013-03-02 20:19:00,
2013-03-02 12:24:00,70.5,26.3,30.17,South,172,4.0,7.6,19,0.00,,SCT250,0.00,VWS V14.01,2013-03-02 20:24:00,
2013-03-02 12:29:00,70.9,26.6,30.17,East,90,7.2,7.6,19,0.00,,SCT250,0.00,VWS V14.01,2013-03-02 20:29:00,
2013-03-02 12:34:00,71.2,26.9,30.17,SE,134,8.3,8.7,19,0.00,,SCT250,0.00,VWS V14.01,2013-03-02 20:34:00,
2013-03-02 12:39:00,71.2,26.9,30.17,ESE,116,10.5,10.5,19,0.00,,SCT250,0.00,VWS V14.01,2013-03-02 20:39:00,
2013-03-02 12:44:00,71.1,26.8,30.17,ESE,120,6.3,8.7,19,0.00,,SCT250,0.00,VWS V14.01,2013-03-02 20:44:00,
2013-03-02 12:49:00,71.2,26.9,30.17,ESE,107,8.1,11.0,19,0.00,,SCT250,0.00,VWS V14.01,2013-03-02 20:49:00,
2013-03-02 12:54:00,71.4,27.0,30.17,East,95,8.3,8.3,19,0.00,,SCT250,0.00,VWS V14.01,2013-03-02 20:54:00,
2013-03-02 12:59:00,71.6,27.2,30.17,SE,127,8.7,10.1,19,0.00,,SCT250,0.00,VWS V14.01,2013-03-02 20:59:00,
2013-03-02 13:04:00,71.6,27.2,30.17,SE,124,6.3,10.1,19,0.00,,SCT250,0.00,VWS V14.01,2013-03-02 21:04:00,
2013-03-02 13:09:00,72.0,27.5,30.14,ESE,123,5.4,8.7,19,0.00,,SCT250,0.00,VWS V14.01,2013-03-02 21:09:00,
2013-03-02 13:14:00,72.0,27.5,30.14,East,79,8.7,11.0,19,0.00,,SCT250,0.00,VWS V14.01,2013-03-02 21:14:00,
2013-03-02 13:19:00,72.0,27.5,30.14,SE,141,5.4,7.6,19,0.00,,SCT250,0.00,VWS V14.01,2013-03-02 21:19:00,
2013-03-02 13:24:00,72.5,27.9,30.14,ESE,115,8.3,10.5,19,0.00,,SCT250,0.00,VWS V14.01,2013-03-02 21:24:00,
2013-03-02 13:29:00,72.3,27.8,30.14,East,101,8.7,11.0,19,0.00,,SCT250,0.00,VWS V14.01,2013-03-02 21:29:00,
2013-03-02 13:34:00,72.0,27.5,30.14,ESE,122,8.3,10.5,19,0.00,,SCT250,0.00,VWS V14.01,2013-03-02 21:34:00,
2013-03-02 13:39:00,72.3,27.8,30.14,ESE,110,3.1,8.7,19,0.00,,SCT250,0.00,VWS V14.01,2013-03-02 21:39:00,
2013-03-02 13:44:00,72.7,28.1,30.14,East,99,3.6,8.1,19,0.00,,SCT250,0.00,VWS V14.01,2013-03-02 21:44:00,
2013-03-02 13:49:00,72.7,28.1,30.14,East,96,8.1,8.1,19,0.00,,SCT250,0.00,VWS V14.01,2013-03-02 21:49:00,
2013-03-02 13:54:00,72.7,28.1,30.14,East,90,6.3,8.1,19,0.00,,SCT250,0.00,VWS V14.01,2013-03-02 21:54:00,
2013-03-02 13:59:00,72.9,28.2,30.14,SE,132,5.8,8.7,19,0.00,,SCT250,0.00,VWS V14.01,2013-03-02 21:59:00,
2013-03-02 14:04:00,73.0,28.4,30.14,ESE,111,8.7,10.5,19,0.00,,SCT250,0.00,VWS V14.01,2013-03-02 22:04:00,
2013-03-02 14:09:00,73.2,28.5,30.11,South,178,6.7,6.7,19,0.00,,SCT250,0.00,VWS V14.01,2013-03-02 22:09:00,
2013-03-02 14:14:00,73.2,28.5,30.11,East,88,7.6,9.2,19,0.00,,SCT250,0.00,VWS V14.01,2013-03-02 22:14:00,
2013-03-02 14:19:00,72.9,28.2,30.11,ESE,115,6.3,8.7,19,0.00,,SCT250,0.00,VWS V14.01,2013-03-02 22:19:00,
2013-03-02 14:24:00,73.0,28.4,30.11,ESE,108,5.8,7.6,19,0.00,,SCT250,0.00,VWS V14.01,2013-03-02 22:24:00,
2013-03-02 14:29:00,73.6,27.5,30.11,ENE,72,4.9,6.3,18,0.00,,SCT250,0.00,VWS V14.01,2013-03-02 22:29:00,
2013-03-02 14:34:00,73.6,27.5,30.11,SSE,161,3.6,7.2,18,0.00,,SCT250,0.00,VWS V14.01,2013-03-02 22:34:00,
2013-03-02 14:39:00,73.8,27.6,30.11,ESE,103,3.6,6.3,18,0.00,,SCT250,0.00,VWS V14.01,2013-03-02 22:39:00,
2013-03-02 14:44:00,74.1,27.9,30.11,South,189,7.6,8.3,18,0.00,,SCT250,0.00,VWS V14.01,2013-03-02 22:44:00,
2013-03-02 14:49:00,73.8,27.6,30.11,SSE,147,2.7,5.4,18,0.00,,SCT250,0.00,VWS V14.01,2013-03-02 22:49:00,
2013-03-02 14:54:00,73.8,27.6,30.11,SSE,150,4.9,8.7,18,0.00,,SCT250,0.00,VWS V14.01,2013-03-02 22:54:00,
2013-03-02 14:59:00,74.1,27.9,30.11,East,91,6.3,7.6,18,0.00,,SCT250,0.00,VWS V14.01,2013-03-02 22:59:00,
2013-03-02 15:04:00,73.8,27.6,30.11,East,90,6.3,8.1,18,0.00,,SCT250,0.00,VWS V14.01,2013-03-02 23:04:00,
2013-03-02 15:09:00,73.0,28.4,30.11,ESE,113,5.8,8.7,19,0.00,,SCT250,0.00,VWS V14.01,2013-03-02 23:09:00,
2013-03-02 15:14:00,73.2,28.5,30.11,ESE,121,5.4,7.6,19,0.00,,SCT250,0.00,VWS V14.01,2013-03-02 23:14:00,
2013-03-02 15:19:00,72.9,28.2,30.11,SSE,151,3.6,6.3,19,0.00,,SCT250,0.00,VWS V14.01,2013-03-02 23:19:00,
2013-03-02 15:24:00,72.7,28.1,30.08,SE,145,5.8,6.3,19,0.00,,SCT250,0.00,VWS V14.01,2013-03-02 23:24:00,
2013-03-02 15:29:00,72.5,27.9,30.08,SE,143,6.3,6.7,19,0.00,,SCT250,0.00,VWS V14.01,2013-03-02 23:29:00,
2013-03-02 15:34:00,72.3,27.8,30.08,ESE,121,5.8,7.2,19,0.00,,SCT250,0.00,VWS V14.01,2013-03-02 23:34:00,
2013-03-02 15:39:00,72.5,27.9,30.08,ESE,113,5.8,5.8,19,0.00,,SCT250,0.00,VWS V14.01,2013-03-02 23:39:00,
2013-03-02 15:44:00,72.3,27.8,30.08,East,101,5.4,8.3,19,0.00,,SCT250,0.00,VWS V14.01,2013-03-02 23:44:00,
2013-03-02 15:49:00,72.1,27.6,30.08,East,94,2.7,4.0,19,0.00,,SCT250,0.00,VWS V14.01,2013-03-02 23:49:00,
2013-03-02 15:54:00,72.3,27.8,30.08,ENE,77,4.0,4.0,19,0.00,,SCT250,0.00,VWS V14.01,2013-03-02 23:54:00,
2013-03-02 15:59:00,72.3,27.8,30.08,East,99,0.0,0.0,19,0.00,,SCT250,0.00,VWS V14.01,2013-03-02 23:59:00,
2013-03-02 16:04:00,72.3,27.8,30.08,ENE,76,3.6,3.6,19,0.00,,BKN250,0.00,VWS V14.01,2013-03-03 00:04:00,
2013-03-02 16:09:00,72.1,27.6,30.08,East,91,4.0,5.4,19,0.00,,BKN250,0.00,VWS V14.01,2013-03-03 00:09:00,
2013-03-02 16:14:00,72.0,27.5,30.08,ENE,78,4.0,6.3,19,0.00,,BKN250,0.00,VWS V14.01,2013-03-03 00:14:00,
2013-03-02 16:19:00,72.0,27.5,30.08,ENE,65,4.0,4.0,19,0.00,,BKN250,0.00,VWS V14.01,2013-03-03 00:19:00,
2013-03-02 16:24:00,72.3,27.8,30.08,ENE,57,4.0,5.4,19,0.00,,BKN250,0.00,VWS V14.01,2013-03-03 00:24:00,
2013-03-02 16:29:00,72.7,28.1,30.08,East,89,4.0,4.9,19,0.00,,BKN250,0.00,VWS V14.01,2013-03-03 00:29:00,
2013-03-02 16:33:00,72.3,27.8,30.08,East,92,4.9,4.9,19,0.00,,BKN250,0.00,VWS V14.01,2013-03-03 00:33:00,
2013-03-02 16:38:00,72.0,27.5,30.05,East,80,5.4,6.3,19,0.00,,BKN250,0.00,VWS V14.01,2013-03-03 00:38:00,
2013-03-02 16:44:00,71.8,27.3,30.05,ESE,104,5.4,6.3,19,0.00,,BKN250,0.00,VWS V14.01,2013-03-03 00:44:00,
2013-03-02 16:48:00,71.6,27.2,30.05,East,99,4.9,4.9,19,0.00,,BKN250,0.00,VWS V14.01,2013-03-03 00:48:00,
2013-03-02 16:53:00,71.4,27.0,30.05,East,79,4.9,4.9,19,0.00,,BKN250,0.00,VWS V14.01,2013-03-03 00:53:00,
2013-03-02 16:58:00,71.2,26.9,30.05,ENE,73,4.9,5.4,19,0.00,,BKN250,0.00,VWS V14.01,2013-03-03 00:58:00,
2013-03-02 17:03:00,71.1,26.8,30.05,East,81,5.4,5.4,19,0.00,,BKN250,0.00,VWS V14.01,2013-03-03 01:03:00,
2013-03-02 17:08:00,70.9,26.6,30.05,East,85,3.1,5.4,19,0.00,,BKN250,0.00,VWS V14.01,2013-03-03 01:08:00,
2013-03-02 17:13:00,70.7,26.5,30.05,ENE,77,4.9,5.8,19,0.00,,BKN250,0.00,VWS V14.01,2013-03-03 01:13:00,
2013-03-02 17:18:00,70.3,26.2,30.05,East,85,4.9,5.4,19,0.00,,BKN250,0.00,VWS V14.01,2013-03-03 01:18:00,
2013-03-02 17:23:00,70.2,26.0,30.05,ENE,76,3.6,3.6,19,0.00,,BKN250,0.00,VWS V14.01,2013-03-03 01:23:00,
2013-03-02 17:28:00,70.0,25.9,30.05,ENE,75,3.1,3.1,19,0.00,,BKN250,0.00,VWS V14.01,2013-03-03 01:28:00,
2013-03-02 17:33:00,69.8,25.7,30.05,East,83,3.6,3.6,19,0.00,,BKN250,0.00,VWS V14.01,2013-03-03 01:33:00,
2013-03-02 17:38:00,69.6,26.8,30.05,East,89,5.4,5.8,20,0.00,,BKN250,0.00,VWS V14.01,2013-03-03 01:38:00,
2013-03-02 17:43:00,69.4,26.7,30.05,East,97,4.9,4.9,20,0.00,,BKN250,0.00,VWS V14.01,2013-03-03 01:43:00,
2013-03-02 17:48:00,69.3,26.5,30.05,ESE,103,2.7,4.0,20,0.00,,BKN250,0.00,VWS V14.01,2013-03-03 01:48:00,
2013-03-02 17:53:00,69.1,26.4,30.05,ESE,103,3.1,3.1,20,0.00,,BKN250,0.00,VWS V14.01,2013-03-03 01:53:00,
2013-03-02 17:58:00,68.9,26.2,30.05,ESE,103,2.2,4.0,20,0.00,,BKN250,0.00,VWS V14.01,2013-03-03 01:58:00,
2013-03-02 18:03:00,68.7,26.1,30.05,ESE,102,3.6,3.6,20,0.00,,OVC250,0.00,VWS V14.01,2013-03-03 02:03:00,
2013-03-02 18:08:00,68.5,25.9,30.05,East,90,2.7,3.1,20,0.00,,OVC250,0.00,VWS V14.01,2013-03-03 02:08:00,
2013-03-02 18:13:00,68.4,25.8,30.05,East,94,2.7,3.1,20,0.00,,OVC250,0.00,VWS V14.01,2013-03-03 02:13:00,
2013-03-02 18:18:00,68.2,25.6,30.05,East,88,0.0,0.0,20,0.00,,OVC250,0.00,VWS V14.01,2013-03-03 02:18:00,
2013-03-02 18:23:00,68.0,25.5,30.05,East,89,0.0,0.0,20,0.00,,OVC250,0.00,VWS V14.01,2013-03-03 02:23:00,
2013-03-02 18:28:00,67.8,25.3,30.05,East,88,4.0,4.0,20,0.00,,OVC250,0.00,VWS V14.01,2013-03-03 02:28:00,
2013-03-02 18:33:00,67.6,25.2,30.05,East,83,3.6,3.6,20,0.00,,OVC250,0.00,VWS V14.01,2013-03-03 02:33:00,
2013-03-02 18:38:00,67.5,25.0,30.05,ENE,68,5.4,5.4,20,0.00,,OVC250,0.00,VWS V14.01,2013-03-03 02:38:00,
2013-03-02 18:43:00,67.3,24.9,30.05,East,85,3.1,3.6,20,0.00,,OVC250,0.00,VWS V14.01,2013-03-03 02:43:00,
2013-03-02 18:48:00,67.3,24.9,30.05,East,79,3.6,3.6,20,0.00,,OVC250,0.00,VWS V14.01,2013-03-03 02:48:00,
2013-03-02 18:53:00,67.3,24.9,30.05,ENE,77,3.1,4.5,20,0.00,,OVC250,0.00,VWS V14.01,2013-03-03 02:53:00,
2013-03-02 18:58:00,67.5,25.0,30.05,ENE,73,5.4,5.4,20,0.00,,OVC250,0.00,VWS V14.01,2013-03-03 02:58:00,
2013-03-02 19:03:00,67.5,25.0,30.05,NE,54,0.0,0.0,20,0.00,,OVC250,0.00,VWS V14.01,2013-03-03 03:03:00,
2013-03-02 19:08:00,67.3,24.9,30.02,ENE,62,2.7,3.1,20,0.00,,OVC250,0.00,VWS V14.01,2013-03-03 03:08:00,
2013-03-02 19:13:00,66.9,24.6,30.02,ENE,62,0.0,0.0,20,0.00,,OVC250,0.00,VWS V14.01,2013-03-03 03:13:00,
2013-03-02 19:18:00,66.7,24.4,30.02,East,88,4.0,4.0,20,0.00,,OVC250,0.00,VWS V14.01,2013-03-03 03:18:00,
2013-03-02 19:23:00,66.7,24.4,30.02,East,80,3.1,4.0,20,0.00,,OVC250,0.00,VWS V14.01,2013-03-03 03:23:00,
2013-03-02 19:28:00,66.9,24.6,30.02,ENE,74,2.7,4.9,20,0.00,,OVC250,0.00,VWS V14.01,2013-03-03 03:28:00,
2013-03-02 19:33:00,67.3,24.9,30.02,East,81,4.0,4.9,20,0.00,,OVC250,0.00,VWS V14.01,2013-03-03 03:33:00,
2013-03-02 19:38:00,67.6,25.2,30.02,ENE,75,4.0,4.0,20,0.00,,OVC250,0.00,VWS V14.01,2013-03-03 03:38:00,
2013-03-02 19:43:00,67.6,25.2,30.02,ENE,69,3.1,3.6,20,0.00,,OVC250,0.00,VWS V14.01,2013-03-03 03:43:00,
2013-03-02 19:48:00,67.5,25.0,30.02,ENE,69,2.7,2.7,20,0.00,,OVC250,0.00,VWS V14.01,2013-03-03 03:48:00,
2013-03-02 19:53:00,67.3,24.9,30.02,East,85,3.1,4.0,20,0.00,,OVC250,0.00,VWS V14.01,2013-03-03 03:53:00,
2013-03-02 19:58:00,67.1,24.7,30.02,East,84,4.9,4.9,20,0.00,,OVC250,0.00,VWS V14.01,2013-03-03 03:58:00,
2013-03-02 20:03:00,67.1,24.7,30.02,ENE,64,3.1,3.1,20,0.00,,OVC250,0.00,VWS V14.01,2013-03-03 04:03:00,
2013-03-02 20:08:00,67.1,24.7,30.02,East,94,3.6,3.6,20,0.00,,OVC250,0.00,VWS V14.01,2013-03-03 04:08:00,
2013-03-02 20:13:00,67.1,24.7,30.02,ENE,64,4.9,4.9,20,0.00,,OVC250,0.00,VWS V14.01,2013-03-03 04:13:00,
2013-03-02 20:18:00,67.1,24.7,30.02,ENE,76,2.2,2.2,20,0.00,,OVC250,0.00,VWS V14.01,2013-03-03 04:18:00,
2013-03-02 20:23:00,66.7,24.4,30.02,ENE,75,0.0,0.0,20,0.00,,OVC250,0.00,VWS V14.01,2013-03-03 04:23:00,
2013-03-02 20:28:00,66.4,24.1,30.02,ENE,75,0.0,0.0,20,0.00,,OVC250,0.00,VWS V14.01,2013-03-03 04:28:00,
2013-03-02 20:33:00,66.2,24.0,30.02,ENE,75,0.0,0.0,20,0.00,,OVC250,0.00,VWS V14.01,2013-03-03 04:33:00,
2013-03-02 20:38:00,65.8,23.7,30.02,ENE,75,0.0,0.0,20,0.00,,OVC250,0.00,VWS V14.01,2013-03-03 04:38:00,
2013-03-02 20:43:00,65.7,23.5,30.02,East,100,3.1,3.1,20,0.00,,OVC250,0.00,VWS V14.01,2013-03-03 04:43:00,
2013-03-02 20:48:00,65.5,23.4,30.02,East,97,0.0,0.0,20,0.00,,OVC250,0.00,VWS V14.01,2013-03-03 04:48:00,
2013-03-02 20:53:00,65.5,23.4,30.02,East,97,0.0,0.0,20,0.00,,OVC250,0.00,VWS V14.01,2013-03-03 04:53:00,
2013-03-02 20:58:00,65.3,23.2,30.02,East,97,0.0,0.0,20,0.00,,OVC250,0.00,VWS V14.01,2013-03-03 04:58:00,
2013-03-02 21:00:00,65.1,23.1,30.02,East,97,0.0,0.0,20,0.00,,OVC250,0.00,VWS V14.01,2013-03-03 05:00:00,
2013-03-02 21:05:00,64.9,22.9,30.02,East,97,0.0,0.0,20,0.00,,OVC250,0.00,VWS V14.01,2013-03-03 05:05:00,
2013-03-02 21:10:00,64.8,22.8,30.02,ESE,108,4.5,4.9,20,0.00,,OVC250,0.00,VWS V14.01,2013-03-03 05:10:00,
2013-03-02 21:15:00,64.6,22.6,30.02,ESE,104,4.9,5.4,20,0.00,,OVC250,0.00,VWS V14.01,2013-03-03 05:15:00,
2013-03-02 21:20:00,64.4,22.5,30.02,ESE,103,4.9,4.9,20,0.00,,OVC250,0.00,VWS V14.01,2013-03-03 05:20:00,
2013-03-02 21:25:00,64.6,22.6,30.02,ESE,112,4.0,5.8,20,0.00,,OVC250,0.00,VWS V14.01,2013-03-03 05:25:00,
2013-03-02 21:30:00,64.6,22.6,30.02,East,93,3.1,5.8,20,0.00,,OVC250,0.00,VWS V14.01,2013-03-03 05:30:00,
2013-03-02 21:35:00,64.4,22.5,30.02,ESE,107,3.6,5.4,20,0.00,,OVC250,0.00,VWS V14.01,2013-03-03 05:35:00,
2013-03-02 21:40:00,64.4,22.5,30.02,ESE,109,4.0,4.9,20,0.00,,OVC250,0.00,VWS V14.01,2013-03-03 05:40:00,
2013-03-02 21:45:00,64.2,23.5,30.02,ESE,109,4.5,4.5,21,0.00,,OVC250,0.00,VWS V14.01,2013-03-03 05:45:00,
2013-03-02 21:50:00,64.2,23.5,30.02,ESE,109,0.0,0.0,21,0.00,,OVC250,0.00,VWS V14.01,2013-03-03 05:50:00,
2013-03-02 21:55:00,63.9,23.2,30.02,ESE,118,4.0,4.0,21,0.00,,OVC250,0.00,VWS V14.01,2013-03-03 05:55:00,
2013-03-02 22:00:00,63.5,22.9,30.02,ESE,117,0.0,0.0,21,0.00,,OVC250,0.00,VWS V14.01,2013-03-03 06:00:00,
2013-03-02 22:05:00,63.3,22.8,30.02,ESE,118,0.0,0.0,21,0.00,,BKN250,0.00,VWS V14.01,2013-03-03 06:05:00,
2013-03-02 22:10:00,63.1,19.0,30.02,ESE,117,0.0,0.0,18,0.00,,BKN250,0.00,VWS V14.01,2013-03-03 06:10:00,
2013-03-02 22:15:00,63.0,18.8,30.02,ESE,118,0.0,0.0,18,0.00,,BKN250,0.00,VWS V14.01,2013-03-03 06:15:00,
2013-03-02 22:20:00,62.6,22.1,30.02,ESE,117,0.0,0.0,21,0.00,,BKN250,0.00,VWS V14.01,2013-03-03 06:20:00,
2013-03-02 22:25:00,62.2,19.5,30.02,ESE,117,0.0,0.0,19,0.00,,BKN250,0.00,VWS V14.01,2013-03-03 06:25:00,
2013-03-02 22:30:00,62.2,19.5,30.02,ESE,118,0.0,0.0,19,0.00,,BKN250,0.00,VWS V14.01,2013-03-03 06:30:00,
2013-03-02 22:35:00,62.2,19.5,30.02,ESE,118,0.0,0.0,19,0.00,,BKN250,0.00,VWS V14.01,2013-03-03 06:35:00,
2013-03-02 22:40:00,62.1,19.3,30.02,ESE,117,4.0,4.0,19,0.00,,BKN250,0.00,VWS V14.01,2013-03-03 06:40:00,
2013-03-02 22:45:00,62.2,19.5,30.02,East,95,2.7,2.7,19,0.00,,BKN250,0.00,VWS V14.01,2013-03-03 06:45:00,
2013-03-02 22:50:00,62.4,19.6,30.02,East,95,0.0,0.0,19,0.00,,BKN250,0.00,VWS V14.01,2013-03-03 06:50:00,
2013-03-02 22:55:00,62.6,22.1,30.02,East,96,0.0,0.0,21,0.00,,BKN250,0.00,VWS V14.01,2013-03-03 06:55:00,
2013-03-02 23:00:00,62.8,22.3,30.02,East,82,4.0,4.0,21,0.00,,BKN250,0.00,VWS V14.01,2013-03-03 07:00:00,
2013-03-02 23:05:00,62.6,22.1,30.02,East,79,3.1,3.1,21,0.00,,BKN250,0.00,VWS V14.01,2013-03-03 07:05:00,
2013-03-02 23:10:00,62.6,18.5,30.02,East,95,4.0,4.0,18,0.00,,BKN250,0.00,VWS V14.01,2013-03-03 07:10:00,
2013-03-02 23:15:00,62.8,22.3,30.02,East,81,4.0,6.3,21,0.00,,BKN250,0.00,VWS V14.01,2013-03-03 07:15:00,
2013-03-02 23:20:00,63.0,18.8,30.02,East,89,4.9,4.9,18,0.00,,BKN250,0.00,VWS V14.01,2013-03-03 07:20:00,
2013-03-02 23:25:00,62.8,22.3,29.99,NE,50,6.3,6.3,21,0.00,,BKN250,0.00,VWS V14.01,2013-03-03 07:25:00,
2013-03-02 23:30:00,62.6,22.1,29.99,East,83,2.7,2.7,21,0.00,,BKN250,0.00,VWS V14.01,2013-03-03 07:30:00,
2013-03-02 23:35:00,62.6,18.5,29.99,ENE,74,6.3,6.3,18,0.00,,BKN250,0.00,VWS V14.01,2013-03-03 07:35:00,
2013-03-02 23:40:00,62.6,22.1,29.99,East,94,3.6,4.0,21,0.00,,BKN250,0.00,VWS V14.01,2013-03-03 07:40:00,
2013-03-02 23:45:00,62.6,18.5,29.99,East,94,0.0,0.0,18,0.00,,BKN250,0.00,VWS V14.01,2013-03-03 07:45:00,
2013-03-02 23:49:00,62.4,19.6,29.99,East,86,4.9,4.9,19,0.00,,BKN250,0.00,VWS V14.01,2013-03-03 07:49:00,
2013-03-02 23:54:00,62.2,19.5,29.99,East,93,4.0,4.0,19,0.00,,BKN250,0.00,VWS V14.01,2013-03-03 07:54:00,
2013-03-02 23:59:00,61.9,19.2,29.99,East,94,4.0,4.0,19,0.00,,BKN250,0.00,VWS V14.01,2013-03-03 07:59:00,